Weather reports worldwide

Advertisment
Sodankyla, Finland (2836): temperature & dewpoint: 05.12.2019 09:00:00 - 11.12.2019 09:00:00 (EET)Sodankyla, Finland (2836): wind speed & gusts: 05.12.2019 09:00:00 - 11.12.2019 09:00:00 (EET)Sodankyla, Finland (2836): wind direction: 05.12.2019 09:00:00 - 11.12.2019 09:00:00 (EET)Sodankyla, Finland (2836): reduced air pressure: 05.12.2019 09:00:00 - 11.12.2019 09:00:00 (EET)Sodankyla, Finland (2836): visibility: 05.12.2019 09:00:00 - 11.12.2019 09:00:00 (EET)Sodankyla, Finland (2836): precipitation: 05.12.2019 09:00:00 - 11.12.2019 09:00:00 (EET)
Date & Time tt [°C] td [°C] ff [km/h] ff [kn] fx [km/h] fx [kn] dd ppp [hPa] vv [km] rr [mm]
11.12.2019 09:00:00 -12,8 -13,7 16 8 27 15 SSE 1003,7 3,4 0,0
11.12.2019 08:00:00 -14,4 -15,4 10 5 22 12 SSE 1004,9 16 0,0
11.12.2019 07:00:00 -16,1 -17,2 12 6 23 12 SSE 1006,4 2,9 0,0
11.12.2019 06:00:00 -16,4 -17,3 9 5 20 11 SSE 1007,2 3,4 0,0
11.12.2019 05:00:00 -17,7 -18,4 10 5 19 10 SSE 1008,1 9 0,0
11.12.2019 04:00:00 -22,1 -23,6 6 3 16 9 SSE 1009,1 2,5 0,0
11.12.2019 03:00:00 -24,5 -26,4 9 5 16 9 SSE 1010,1 50 0,0
11.12.2019 02:00:00 -26,5 -28,8 13 7 18 10 SSE 1010,3 15 0,0
11.12.2019 01:00:00 -26,4 -28,9 8 4 10 6 SSE 1010,3 50 0,0
11.12.2019 00:00:00 -25,7 -28,1 6 3 9 5 SSE 1010,3 50 0,0
10.12.2019 23:00:00 -24,8 -27,1 6 3 9 5 SE 1010,1 50 0,0
10.12.2019 22:00:00 -24,4 -26,6 8 5 13 7 S 1009,9 50 0,0
10.12.2019 21:00:00 -24,2 -26,4 9 5 11 6 SSE 1009,8 50 0,0
10.12.2019 20:00:00 -23,1 -25,4 6 3 9 5 SE 1009,2 50 0,0
10.12.2019 19:00:00 -21,8 -23,9 4 2 10 5 SSE 1008,6 50 0,0
10.12.2019 18:00:00 -19,2 -21,2 0 0 6 3 N 1007,7 50 0,0
10.12.2019 17:00:00 -16,1 -17,9 0 0 16 9 N 1006,8 50 0,0
10.12.2019 16:00:00 -14,1 -15,4 11 6 19 10 W 1006,2 50 0,0
10.12.2019 15:00:00 -13,8 -15,1 10 5 18 10 WNW 1005,3 50 0,0
10.12.2019 14:00:00 -12,8 -14,0 9 5 22 12 WNW 1004,5 50 0,0
10.12.2019 13:00:00 -12,6 -13,9 11 6 21 11 WNW 1003,5 50 0,0
10.12.2019 12:00:00 -11,6 -12,8 11 6 29 16 WNW 1002,5 50 0,0
10.12.2019 11:00:00 -12,3 -13,3 15 8 24 13 W 1001,9 50 0,0
10.12.2019 10:00:00 -12,8 -13,7 13 7 24 13 W 1000,8 50 0,0
10.12.2019 09:00:00 -12,9 -14,0 9 5 20 11 WNW 999,8 50 0,0
10.12.2019 08:00:00 -13,4 -14,3 12 6 21 11 WNW 998,6 50 0,0
10.12.2019 07:00:00 -13,2 -14,0 11 6 21 11 WNW 997,7 50 0,0
10.12.2019 06:00:00 -13,7 -14,9 9 5 15 8 WNW 996,7 50 0,0
10.12.2019 05:00:00 -11,8 -12,5 10 5 18 10 WNW 995,4 50 0,0
10.12.2019 04:00:00 -12,2 -13,2 9 5 18 10 WNW 993,8 50 0,0
10.12.2019 03:00:00 -12,1 -13,2 9 5 16 8 WNW 992,5 50 0,0
10.12.2019 02:00:00 -11,6 -12,8 8 5 16 9 WNW 991,1 50 0,0
10.12.2019 01:00:00 -10,8 -11,8 7 4 15 8 WNW 989,7 50 0,0
10.12.2019 00:00:00 -8,9 -10,1 8 4 19 11 WNW 988,3 50 0,0
09.12.2019 23:00:00 -7,2 -8,1 11 6 25 14 NNW 987,1 50 0,0
09.12.2019 22:00:00 -6,1 -6,6 12 7 22 12 NW 985,5 42 0,0
09.12.2019 21:00:00 -6,0 -6,4 10 5 25 13 NNW 984,3 18 0,0
09.12.2019 20:00:00 -6,7 -7,2 12 6 32 17 NNW 983,3 6 0,1
09.12.2019 19:00:00 -6,6 -7,0 14 8 30 16 NNW 982,1 2,5 0,5
09.12.2019 18:00:00 -6,6 -6,9 14 8 31 17 N 981,0 0,6 0,8
09.12.2019 17:00:00 -6,8 -7,2 13 7 33 18 N 980,0 0,9 0,7
09.12.2019 16:00:00 -7,1 -7,6 10 5 23 13 N 979,2 2,1 0,3
09.12.2019 15:00:00 -7,2 -7,7 9 5 20 11 NNW 978,3 3,4 0,1
09.12.2019 14:00:00 -7,3 -7,8 10 5 18 10 NNW 977,8 4,6 0,1
09.12.2019 13:00:00 -7,3 -7,8 11 6 23 13 N 977,2 4,9 0,1
09.12.2019 12:00:00 -7,0 -7,5 9 5 19 10 N 977,1 10 0,0
09.12.2019 11:00:00 -6,2 -6,6 8 4 19 11 N 977,1 10 0,0
09.12.2019 10:00:00 -6,4 -6,8 7 4 17 9 NNE 977,0 38 0,0
09.12.2019 09:00:00 -6,4 -6,9 9 5 17 9 N 976,8 24 0,0
09.12.2019 08:00:00 -6,3 -6,7 7 4 15 8 NNE 977,0 13 0,0
09.12.2019 07:00:00 -6,4 -6,8 6 3 13 7 NNE 977,2 9 0,0
09.12.2019 06:00:00 -6,5 -6,8 6 3 14 7 ENE 977,4 20 0,0
09.12.2019 05:00:00 -6,9 -7,3 5 3 14 8 NNE 977,8 24 0,0
09.12.2019 04:00:00 -7,0 -7,3 9 5 16 9 NE 978,2 29 0,0
09.12.2019 03:00:00 -8,5 -8,8 4 2 8 5 E 978,6 27 0,0
09.12.2019 02:00:00 -9,2 -9,6 5 3 8 5 NNE 978,8 34 0,0
09.12.2019 01:00:00 -10,4 -11,2 5 3 9 5 N 979,2 17 0,0
09.12.2019 00:00:00 -9,1 -9,8 3 1 6 4 N 979,6 50 0,0
08.12.2019 23:00:00 -8,4 -9,0 3 1 4 2 WNW 979,4 27 0,0
08.12.2019 22:00:00 -6,8 -7,5 3 2 15 8 N 979,2 32 0,0
08.12.2019 21:00:00 -5,4 -5,4 7 4 10 5 N 978,9 46 0,0
08.12.2019 20:00:00 -6,5 -6,9 4 2 7 4 NW 979,0 2,6 0,0
08.12.2019 19:00:00 -5,5 -5,8 4 2 6 4 WNW 978,9 2,3 0,2
08.12.2019 18:00:00 -5,0 -5,3 3 2 6 4 NNW 978,7 50 0,0
08.12.2019 17:00:00 -4,8 -5,0 4 2 8 4 NW 978,5 50 0,0
08.12.2019 16:00:00 -4,1 -4,2 2 1 4 2 NNW 978,5 50 0,0
08.12.2019 15:00:00 -3,8 -3,9 2 1 5 3 ENE 978,0 42 0,0
08.12.2019 14:00:00 -3,6 -3,7 4 2 8 4 N 978,0 18 0,0
08.12.2019 13:00:00 -3,6 -3,7 3 2 8 5 ENE 977,6 50 0,0
08.12.2019 12:00:00 -3,6 -3,7 4 2 6 3 ESE 977,6 37 0,0
08.12.2019 11:00:00 -3,5 -3,6 2 1 7 4 NW 977,9 25 0,0
08.12.2019 10:00:00 -3,3 -3,4 4 2 9 5 ESE 977,6 50 0,0
08.12.2019 09:00:00 -3,3 -3,4 4 2 6 4 E 977,6 32 0,0
08.12.2019 08:00:00 -3,2 -3,2 4 2 6 3 NNE 977,6 50 0,0
08.12.2019 07:00:00 -2,9 -3,0 4 2 11 6 SE 977,7 26 0,0
08.12.2019 06:00:00 -3,0 -3,0 4 2 7 4 SSW 977,9 50 0,0
08.12.2019 05:00:00 -2,7 -2,7 4 2 10 5 SE 978,2 22 0,0
08.12.2019 04:00:00 -2,6 -2,6 6 3 11 6 SE 978,3 13 0,1
08.12.2019 03:00:00 -2,5 -2,5 5 3 10 5 SE 978,7 10 0,0
08.12.2019 02:00:00 -2,4 -2,4 6 4 11 6 SE 978,7 8 0,0
08.12.2019 01:00:00 -2,5 -2,5 5 3 11 6 SSE 979,0 6 0,1
08.12.2019 00:00:00 -2,6 -2,6 6 3 8 5 SE 979,4 3,0 0,0
07.12.2019 23:00:00 -2,5 -2,5 6 3 9 5 SSE 979,6 15 0,0
07.12.2019 22:00:00 -2,5 -2,5 6 3 12 6 S 979,8 7 0,0
07.12.2019 21:00:00 -2,8 -2,9 3 2 10 6 SSW 980,2 41 0,0
07.12.2019 20:00:00 -2,1 -2,1 7 4 13 7 SE 980,3 15 0,1
07.12.2019 19:00:00 -2,0 -2,0 6 3 11 6 SSE 980,5 1,8 0,1
07.12.2019 18:00:00 -2,0 -2,0 5 3 14 8 SE 980,5 9 0,0
07.12.2019 17:00:00 -2,0 -2,0 6 3 16 9 S 980,6 2,9 0,0
07.12.2019 16:00:00 -2,1 -2,1 6 4 14 7 S 980,7 26 0,0
07.12.2019 15:00:00 -2,2 -2,2 5 3 14 8 S 981,0 3,0 0,1
07.12.2019 14:00:00 -2,3 -2,3 7 4 15 8 SE 981,1 2,1 0,1
07.12.2019 13:00:00 -2,6 -2,6 8 4 13 7 SSE 981,3 2,9 0,0
07.12.2019 12:00:00 -3,0 -3,0 6 3 11 6 SE 981,6 4,3 0,0
07.12.2019 11:00:00 -3,3 -3,3 9 5 14 8 SE 981,7 19 0,0
07.12.2019 10:00:00 -3,7 -3,7 9 5 16 9 SE 981,8 13 0,0
07.12.2019 09:00:00 -5,9 -5,9 8 4 13 7 SSE 981,9 4,9 0,0
07.12.2019 08:00:00 -7,4 -7,8 2 1 8 5 SSE 981,9 39 0,0
07.12.2019 07:00:00 -8,0 -8,4 0 0 5 3 N 982,0 3,3 0,0
07.12.2019 06:00:00 -8,5 -8,9 2 1 6 4 E 982,3 2,3 0,1
07.12.2019 05:00:00 -9,2 -9,8 2 1 5 3 ENE 982,3 6 0,1
07.12.2019 04:00:00 -9,3 -9,9 2 1 4 2 NNW 982,6 1,7 0,1
07.12.2019 03:00:00 -9,7 -10,1 3 1 4 2 W 982,8 1,5 0,0
07.12.2019 02:00:00 -10,2 -10,5 3 1 5 3 E 982,9 0,9 0,0
07.12.2019 01:00:00 -10,7 -11,0 3 2 7 4 E 982,8 1,9 0,0
07.12.2019 00:00:00 -11,2 -11,6 0 0 8 4 N 982,8 1,5 0,0
06.12.2019 23:00:00 -11,3 -11,6 5 3 11 6 SSE 982,7 1,7 0,0
06.12.2019 22:00:00 -11,8 -12,1 4 2 10 5 SSE 982,5 2,3 0,0
06.12.2019 21:00:00 -13,3 -14,1 5 3 9 5 S 982,1 50 0,0
06.12.2019 20:00:00 -14,6 -15,2 4 2 9 5 SE 982,0 25 0,0
06.12.2019 19:00:00 -16,3 -17,5 3 2 6 4 SSE 981,7 50 0,0
06.12.2019 18:00:00 -15,9 -17,2 2 1 6 4 ENE 981,1 50 0,0
06.12.2019 17:00:00 -15,8 -17,2 2 1 4 2 WNW 980,7 50 0,0
06.12.2019 16:00:00 -14,6 -15,8 2 1 5 3 SSE 979,9 50 0,0
06.12.2019 15:00:00 -12,9 -14,0 4 2 10 5 SSE 979,4 50 0,0
06.12.2019 14:00:00 -11,0 -12,0 7 4 11 6 SW 978,8 50 0,0
06.12.2019 13:00:00 -9,4 -10,0 9 5 13 7 S 978,1 50 0,0
06.12.2019 12:00:00 -7,7 -8,1 3 2 13 7 SE 977,9 50 0,0
06.12.2019 11:00:00 -7,7 -8,1 9 5 16 9 SSW 977,5 48 0,0
06.12.2019 10:00:00 -8,1 -8,3 10 5 16 9 SSW 977,0 38 0,0
06.12.2019 09:00:00 -9,8 -10,6 9 5 20 11 SSW 976,6 50 0,0
06.12.2019 08:00:00 -8,7 -9,4 5 3 12 7 SSE 975,7 50 0,0
06.12.2019 07:00:00 -7,0 -7,2 7 4 15 8 SSW 975,4 50 0,0
06.12.2019 06:00:00 -6,1 -6,3 9 5 16 8 WSW 974,8 50 0,0
06.12.2019 05:00:00 -5,3 -5,6 7 4 12 6 SW 974,5 50 0,0
06.12.2019 04:00:00 -3,7 -3,9 4 2 14 8 SW 974,0 50 0,0
06.12.2019 03:00:00 -2,5 -3,0 5 3 20 11 SW 973,8 50 0,0
06.12.2019 02:00:00 -1,4 -1,9 10 5 22 12 SSW 973,7 50 0,0
06.12.2019 01:00:00 -1,0 -1,5 10 5 26 14 SSW 973,8 50 0,0
06.12.2019 00:00:00 -0,8 -1,4 9 5 22 12 SSW 973,8 50 0,0
05.12.2019 23:00:00 -0,6 -0,9 10 5 30 16 SSW 974,1 50 0,0
05.12.2019 22:00:00 -1,4 -1,5 9 5 22 12 S 973,9 50 0,0
05.12.2019 21:00:00 -2,1 -2,1 9 5 26 14 S 974,6 50 0,0
05.12.2019 20:00:00 -2,7 -2,8 12 6 29 16 S 975,1 45 0,0
05.12.2019 19:00:00 -2,7 -2,9 11 6 30 16 SSW 975,5 50 0,0
05.12.2019 18:00:00 -2,1 -2,2 10 5 33 18 S 976,1 50 0,0
05.12.2019 17:00:00 -1,9 -2,1 10 5 19 11 SSW 976,8 50 0,0
05.12.2019 16:00:00 -1,2 -1,4 10 6 22 12 SSW 977,1 50 0,0
05.12.2019 15:00:00 -0,7 -1,0 14 7 27 14 SW 977,5 50 0,0
05.12.2019 14:00:00 -0,2 -0,5 15 8 27 15 SW 977,7 50 0,0
05.12.2019 13:00:00 0,0 -0,3 11 6 25 13 SW 978,6 50 0,0
05.12.2019 12:00:00 0,0 -0,1 12 7 21 11 SW 978,7 50 0,0
05.12.2019 11:00:00 0,7 0,6 10 6 20 11 SW 979,2 50 0,0
05.12.2019 10:00:00 1,5 1,3 13 7 26 14 WSW 979,3 50 0,0
05.12.2019 09:00:00 1,7 1,7 14 8 28 15 SW 979,2 50 0,0

tt = temperature
td = dewpoint
ff = wind speed
fx = gusts
dd = wind direction
ppp = reduced air pressure
vv = visibility
rr = precipitation

Next stations